Location: *
(51.0333°S, 178.4667°E)
Time: 17:26:14
(UTC+00:00)

STARLINK-45 - Pass Details

Date: 15 November 2019
Orbit: 528 x 530 km, 53.0° (Epoch: 11 December)

Event Time Altitude Azimuth Distance (km) Brightness Sun altitude
Rises 08:05:24 0° 286° (WNW) 2,685 7.7 -4.9°
Reaches altitude 10° 08:07:37 10° 285° (WNW) 1,798 6.8 -5.1°
Maximum altitude 08:11:43 84° 196° (SSW) 549 3.7 -5.7°
Drops below altitude 10° 08:15:49 10° 107° (ESE) 1,806 5.9 -6.2°
Enters shadow 08:20:07 -7° 105° (ESE) 3,523 7.4 -6.7°
